TimeEDT,TemperatureF,Dew PointF,Humidity,Sea Level PressureIn,VisibilityMPH,Wind Direction,Wind SpeedMPH,Gust SpeedMPH,PrecipitationIn,Events,Conditions,WindDirDegrees,DateUTC
12:53 AM,59.0,55.9,90,29.83,10.0,Calm,Calm,-,N/A,,Clear,0,2011-10-18 04:53:00
1:53 AM,57.2,55.4,94,29.83,10.0,Calm,Calm,-,N/A,,Clear,0,2011-10-18 05:53:00
2:53 AM,57.9,55.0,90,29.81,10.0,Calm,Calm,-,N/A,,Clear,0,2011-10-18 06:53:00
3:53 AM,57.0,54.0,89,29.79,10.0,Calm,Calm,-,N/A,,Partly Cloudy,0,2011-10-18 07:53:00
4:53 AM,55.9,53.1,90,29.79,10.0,Calm,Calm,-,N/A,,Clear,0,2011-10-18 08:53:00
5:53 AM,55.9,53.1,90,29.80,10.0,Calm,Calm,-,N/A,,Partly Cloudy,0,2011-10-18 09:53:00
6:53 AM,53.6,51.8,94,29.81,10.0,Calm,Calm,-,N/A,,Scattered Clouds,0,2011-10-18 10:53:00
7:53 AM,53.1,51.1,93,29.80,10.0,Calm,Calm,-,N/A,Fog,Shallow Fog,0,2011-10-18 11:53:00
8:53 AM,60.1,55.0,83,29.80,10.0,Calm,Calm,-,N/A,,Mostly Cloudy,0,2011-10-18 12:53:00
9:53 AM,64.0,57.9,80,29.80,10.0,Calm,Calm,-,N/A,,Mostly Cloudy,0,2011-10-18 13:53:00
10:53 AM,69.1,57.0,65,29.78,10.0,Calm,Calm,-,N/A,,Mostly Cloudy,0,2011-10-18 14:53:00
11:53 AM,73.9,57.0,55,29.75,10.0,South,5.8,-,N/A,,Mostly Cloudy,170,2011-10-18 15:53:00
12:53 PM,78.1,55.9,46,29.73,10.0,South,5.8,-,N/A,,Mostly Cloudy,180,2011-10-18 16:53:00
1:53 PM,79.0,55.9,45,29.70,10.0,SSE,8.1,-,N/A,,Mostly Cloudy,160,2011-10-18 17:53:00
2:53 PM,80.1,57.0,45,29.66,10.0,South,15.0,21.9,N/A,,Mostly Cloudy,180,2011-10-18 18:53:00
3:53 PM,79.0,57.0,47,29.62,10.0,SSE,9.2,-,N/A,,Mostly Cloudy,160,2011-10-18 19:53:00
4:53 PM,79.0,59.0,50,29.60,10.0,SSE,6.9,-,N/A,,Mostly Cloudy,160,2011-10-18 20:53:00
5:53 PM,78.1,57.9,50,29.58,10.0,South,4.6,-,N/A,,Mostly Cloudy,190,2011-10-18 21:53:00
6:53 PM,73.9,60.1,62,29.57,10.0,South,3.5,-,N/A,,Scattered Clouds,180,2011-10-18 22:53:00
7:53 PM,71.1,61.0,70,29.56,10.0,SSW,5.8,-,N/A,,Mostly Cloudy,200,2011-10-18 23:53:00
8:30 PM,71.6,60.8,69,29.56,9.0,SE,11.5,17.3,N/A,Thunderstorm,Thunderstorm,130,2011-10-19 00:30:00
8:53 PM,70.0,63.0,78,29.56,3.0,South,10.4,-,0.05,Rain-Thunderstorm,Thunderstorms and Rain,180,2011-10-19 00:53:00
9:09 PM,69.8,64.4,83,29.58,3.0,WSW,6.9,-,0.09,Rain-Thunderstorm,Light Thunderstorms and Rain,240,2011-10-19 01:09:00
9:19 PM,66.2,62.6,88,29.58,2.0,SW,6.9,-,0.16,Rain-Thunderstorm,Thunderstorms and Rain,220,2011-10-19 01:19:00
9:29 PM,66.2,64.4,94,29.58,7.0,Calm,Calm,-,0.29,Rain-Thunderstorm,Light Thunderstorms and Rain,0,2011-10-19 01:29:00
9:34 PM,66.2,64.4,94,29.57,1.5,Calm,Calm,-,0.30,Rain-Thunderstorm,Light Thunderstorms and Rain,0,2011-10-19 01:34:00
9:53 PM,66.0,64.0,93,29.55,3.0,Calm,Calm,-,0.40,Rain-Thunderstorm,Light Thunderstorms and Rain,0,2011-10-19 01:53:00
10:06 PM,66.2,64.4,94,29.56,1.5,WNW,5.8,-,0.01,Rain-Thunderstorm,Light Thunderstorms and Rain,290,2011-10-19 02:06:00
10:19 PM,66.2,64.4,94,29.57,3.0,Calm,Calm,-,0.08,Rain-Thunderstorm,Light Thunderstorms and Rain,0,2011-10-19 02:19:00
10:39 PM,66.2,62.6,88,29.56,7.0,Calm,Calm,-,0.08,Thunderstorm,Thunderstorm,0,2011-10-19 02:39:00
10:53 PM,66.0,63.0,90,29.55,7.0,West,3.5,-,0.08,Thunderstorm,Thunderstorm,260,2011-10-19 02:53:00
11:16 PM,66.2,62.6,88,29.54,7.0,NW,4.6,-,N/A,,Overcast,320,2011-10-19 03:16:00
11:53 PM,64.9,61.0,87,29.52,10.0,West,4.6,-,0.01,Rain,Light Rain,270,2011-10-19 03:53:00